TimeAKDT,TemperatureF,Dew PointF,Humidity,Sea Level PressureIn,VisibilityMPH,Wind Direction,Wind SpeedMPH,Gust SpeedMPH,PrecipitationIn,Events,Conditions,WindDirDegrees,DateUTC
12:00 AM,48.2,46.4,93,30.46,10.0,South,5.8,-,N/A,,Mostly Cloudy,190,2012-10-06 08:00:00
12:30 AM,48.2,44.6,87,30.45,10.0,SSW,12.7,16.1,N/A,,Mostly Cloudy,210,2012-10-06 08:30:00
12:37 AM,48.2,44.6,87,30.45,10.0,Variable,5.8,16.1,N/A,,Scattered Clouds,0,2012-10-06 08:37:00
12:42 AM,48.2,46.4,93,30.46,10.0,South,9.2,-,N/A,,Mostly Cloudy,190,2012-10-06 08:42:00
12:51 AM,48.2,46.4,93,30.46,10.0,SW,8.1,-,N/A,,Mostly Cloudy,220,2012-10-06 08:51:00
12:53 AM,48.9,46.0,90,30.46,10.0,SSW,6.9,-,N/A,,Mostly Cloudy,200,2012-10-06 08:53:00
1:04 AM,48.2,44.6,87,30.45,10.0,Calm,Calm,-,N/A,,Mostly Cloudy,0,2012-10-06 09:04:00
1:25 AM,46.4,44.6,93,30.45,10.0,Calm,Calm,-,N/A,,Scattered Clouds,0,2012-10-06 09:25:00
1:34 AM,48.2,44.6,87,30.45,10.0,Calm,Calm,-,N/A,,Mostly Cloudy,0,2012-10-06 09:34:00
1:53 AM,46.0,45.0,96,30.45,10.0,Calm,Calm,-,N/A,,Mostly Cloudy,0,2012-10-06 09:53:00
2:08 AM,46.4,44.6,93,30.45,10.0,Calm,Calm,-,N/A,,Scattered Clouds,0,2012-10-06 10:08:00
2:17 AM,46.4,44.6,93,30.45,10.0,Calm,Calm,-,N/A,,Mostly Cloudy,0,2012-10-06 10:17:00
2:53 AM,46.0,44.1,93,30.45,10.0,Calm,Calm,-,N/A,,Mostly Cloudy,0,2012-10-06 10:53:00
3:53 AM,46.0,44.1,93,30.44,10.0,Variable,3.5,-,N/A,,Overcast,0,2012-10-06 11:53:00
4:21 AM,46.4,44.6,93,30.43,10.0,NNE,3.5,-,N/A,,Overcast,20,2012-10-06 12:21:00
4:53 AM,46.9,45.0,93,30.43,10.0,Calm,Calm,-,N/A,,Overcast,0,2012-10-06 12:53:00
5:29 AM,48.2,46.4,93,30.42,10.0,Calm,Calm,-,N/A,,Overcast,0,2012-10-06 13:29:00
5:53 AM,46.9,46.0,97,30.42,10.0,Calm,Calm,-,N/A,,Overcast,0,2012-10-06 13:53:00
6:53 AM,46.9,46.0,97,30.42,10.0,Calm,Calm,-,N/A,,Overcast,0,2012-10-06 14:53:00
7:53 AM,46.9,46.0,97,30.42,10.0,Calm,Calm,-,N/A,,Overcast,0,2012-10-06 15:53:00
8:53 AM,46.9,45.0,93,30.40,10.0,Calm,Calm,-,N/A,,Overcast,0,2012-10-06 16:53:00
9:53 AM,46.9,46.0,97,30.40,10.0,Calm,Calm,-,N/A,,Overcast,0,2012-10-06 17:53:00
10:53 AM,46.9,45.0,93,30.38,10.0,Calm,Calm,-,N/A,,Overcast,0,2012-10-06 18:53:00
11:53 AM,48.9,45.0,86,30.39,10.0,WSW,5.8,-,N/A,,Overcast,240,2012-10-06 19:53:00
12:53 PM,48.9,46.0,90,30.39,10.0,Calm,Calm,-,N/A,,Overcast,0,2012-10-06 20:53:00
1:38 PM,50.0,46.4,87,30.37,10.0,Calm,Calm,-,N/A,,Overcast,0,2012-10-06 21:38:00
1:45 PM,50.0,46.4,87,30.38,10.0,WSW,4.6,-,N/A,,Overcast,250,2012-10-06 21:45:00
1:53 PM,50.0,46.0,86,30.38,10.0,Variable,3.5,-,N/A,,Overcast,0,2012-10-06 21:53:00
2:01 PM,50.0,46.4,87,30.37,10.0,West,5.8,-,N/A,,Overcast,260,2012-10-06 22:01:00
2:53 PM,50.0,46.0,86,30.38,10.0,WSW,9.2,-,N/A,,Overcast,240,2012-10-06 22:53:00
3:53 PM,51.1,46.0,83,30.37,10.0,West,4.6,-,N/A,,Overcast,270,2012-10-06 23:53:00
4:23 PM,51.8,46.4,82,30.34,10.0,SSW,16.1,20.7,N/A,,Overcast,210,2012-10-07 00:23:00
4:53 PM,51.1,46.0,83,30.34,6.0,SSW,13.8,-,0.00,Rain,Light Rain,210,2012-10-07 00:53:00
5:53 PM,52.0,46.9,83,30.34,10.0,SSW,11.5,-,0.00,,Overcast,200,2012-10-07 01:53:00
6:53 PM,50.0,46.0,86,30.33,10.0,Variable,6.9,-,N/A,,Overcast,0,2012-10-07 02:53:00
7:26 PM,51.8,46.4,82,30.33,10.0,Calm,Calm,-,N/A,,Overcast,0,2012-10-07 03:26:00
7:35 PM,48.2,46.4,93,30.33,10.0,SW,5.8,-,N/A,,Overcast,220,2012-10-07 03:35:00
7:53 PM,51.1,46.9,86,30.34,10.0,Calm,Calm,-,N/A,,Overcast,0,2012-10-07 03:53:00
8:53 PM,50.0,46.0,86,30.33,10.0,Variable,3.5,-,N/A,,Overcast,0,2012-10-07 04:53:00
9:49 PM,48.2,46.4,93,30.34,10.0,Calm,Calm,-,N/A,,Mostly Cloudy,0,2012-10-07 05:49:00
9:53 PM,48.9,46.0,90,30.33,10.0,Calm,Calm,-,N/A,,Mostly Cloudy,0,2012-10-07 05:53:00
10:06 PM,48.2,46.4,93,30.34,10.0,NE,3.5,-,N/A,,Overcast,40,2012-10-07 06:06:00
10:37 PM,50.0,46.4,87,30.34,10.0,North,3.5,-,N/A,,Overcast,10,2012-10-07 06:37:00
10:53 PM,48.9,46.0,90,30.35,10.0,Calm,Calm,-,N/A,,Overcast,0,2012-10-07 06:53:00
11:53 PM,48.9,46.9,93,30.34,10.0,Calm,Calm,-,N/A,,Overcast,0,2012-10-07 07:53:00